Погода в Горе

Эфиопия     8°09′10″N   35°31′50″E
темп.,
°C
ветер,
м/с
пор.,
м/с
влажн.,
%
обл.,
%
осадки,
мм/ч
давл.,
гПа
погр.,
м
12 апреля, пн
пн1200:00+18ююв118281 0.3 101434
03:00+17ююв1182100 0.4 101242
06:00+16ююв1194100 2.3 101427
09:00+20юв127465 2.8 1015245
12:00+28с2432100 0.1 10122748
15:00+23юз2449100 0.2 1010185
18:00+20юз2571100 1.3 1012364
21:00+17юв2391100 1.9 101678
13 апреля, вт
вт1300:00+15ююв1193100 0.1 101612
03:00+16вюв118599 0.1 101413
06:00+15юв118696 0.1 101615
09:00+23с1153100 0.1 1016506
12:00+28сз2429100 0.0 10132670
15:00+28ссз3428100 0.0 10092752
18:00+24ссз1137100 0.0 101012
21:00+19ю1157100 0.0 101422
14 апреля, ср
ср1400:00+17юв237096 0.3 101651
03:00+15ююв119081 0.9 101512
06:00+14ююв119215 0.1 101611
09:00+21юв1161100 0.1 1016441
12:00+29ссв2321100 0.0 10122651
15:00+31ссз1320100 0.0 10073472
18:00+26юз2534100 0.0 1009243
21:00+19юз2561100 0.0 101391
15 апреля, чт
чт1500:00+17ю2171100 0.0 101531
03:00+17ююз1174100 0.1 101426
06:00+16вюв117895 0.0 101537
09:00+24вюв1044100 0.0 1014704
12:00+30ссз221926 0.0 10112975
15:00+30зсз331991 0.0 10073400
18:00+27юз262898 0.0 1008477
21:00+19ююз114689 0.0 101211
16 апреля, пт
пт1600:00+17ююв22556 0.0 101419
03:00+15юв116469 0.0 101316
06:00+16ююв226538 0.0 101431
09:00+26сз123730 0.0 1013657
12:00+31ссз221413 0.0 10103207
15:00+32зсз331368 0.0 10064014
18:00+28зюз472553 0.0 10071153
21:00+19ююв224959 0.0 101217